Regional Weather Roundup
Issued by NWS Nashville, TN

Home | Current Version | Previous Version | Text Only | Print | Product List | Glossary On
Versions: 1 2 3 4 5 6 7 8 9 10 11 12 13 14 15 16 17 18 19 20 21 22 23 24 25 26 27 28 29 30 31 32 33 34 35 36 37 38 39 40 41 42 43 44 45 46 47 48 49 50
000
ASUS44 KOHX 210615
RWROHX
MIDDLE TENNESSEE HOURLY WEATHER ROUNDUP
NATIONAL WEATHER SERVICE NASHVILLE TN
100 AM CDT TUE OCT 21 2014

NOTE: "FAIR" INDICATES FEW OR NO CLOUDS BELOW 12,000 FEET WITH
NO SIGNIFICANT WEATHER AND/OR OBSTRUCTIONS TO VISIBILITY.

* THESE REPORTS ARE NOT UNDER NWS QUALITY CONTROL AND MAY NOT
  REPORT WEATHER SUCH AS PRECIPITATION AND FOG.


TNZ005>011-023>034-057-059-062>066-078-080-210700
...NORTHERN MIDDLE TENNESSEE...

CITY           SKY/WX    TMP DP  RH WIND       PRES   REMARKS
CLARKSVILLE    CLEAR     53  51  93 NW6       30.01R
CROSSVILLE     PTCLDY    51  45  79 W7        30.03S
NASHVILLE      CLEAR     52  49  89 CALM      30.01S
SMYRNA         CLEAR     48  47  97 CALM      30.02S
SPARTA         CLEAR     46  45  93 CALM      30.01S
$$
TNZ056-058-060-061-075>077-079-093>097-210700
...SOUTHERN MIDDLE TENNESSEE...

CITY           SKY/WX    TMP DP  RH WIND       PRES   REMARKS
COLUMBIA       PTCLDY   N/A N/A N/A CALM      30.00F
FAYETTEVILLE   CLEAR     46  46 100 MISG      30.03S
MCMINNVILLE    CLEAR     48  48 100 CALM      30.02S
SHELBYVILLE    CLEAR     46  46 100 CALM      30.03S
TULLAHOMA      CLEAR     45  45 100 CALM      30.04R
WINCHESTER     CLEAR     45  45 100 CALM      30.04S
$$


...KEY TO REMARKS...
VSB - VISIBILITY IN MILES
WCI - WIND CHILL INDEX
HX  - HEAT INDEX



USA.gov is the U.S. government's official web portal to all federal, state and local government web resources and services.